{"data":{"norad_id":87650,"epoch":"2026-05-23T07:54:27.644832Z","epoch_age_seconds":222529,"freshness":"STALE","line1":"1 87650U          26143.32948663  .00006796  00000+0  12602-2 0  9993","line2":"2 87650 100.2646   3.0214 0029490 162.6048 197.6165 14.65424826103403","mean_motion":14.65424826,"eccentricity":0.002949,"inclination_deg":100.2646,"raan_deg":3.0214,"arg_perigee_deg":162.6048,"mean_anomaly_deg":197.6165,"bstar":0.0012602,"rev_number":10340,"period_min":98.265020112332,"perigee_km":654.90997658587,"apogee_km":696.51357667042,"semimajor_km":7053.8487766281,"source":"CELESTRAK","updated_at":"2026-05-25T13:38:11.675461Z"}}